Location: Krakow
(50.0830°N, 19.9170°E)
Time: 06:35:14
(UTC+02:00)

A-11 Canister half - Pass Details

Date: 18 March 2026
Orbit: 1523 x 1684 km, 47.3° (Epoch: 18 April)

Event Time Altitude Azimuth Distance (km) Brightness Sun altitude
Rises 14:08:37 0° 287° (WNW) 4,804 11.9 31.0°
Reaches altitude 10° 14:11:55 10° 281° (W) 3,794 11.6 30.6°
Maximum altitude 14:20:47 45° 213° (SSW) 2,022 11.5 29.6°
Drops below altitude 10° 14:29:25 10° 145° (SE) 3,692 11.2 28.6°
Sets 14:32:35 0° 139° (SE) 4,664 11.6 28.2°
